Anoka County, MN

2:20 PM CDT on October 18, 2019 (GMT -0500)
Anoka County / Blaine Airport

Weather History for KANE - August, 2019

Change the Weather History Date:

Monday, August 5, 2019

  Actual Average Record
Temperature  
Mean Temperature 75 °F -  
Max Temperature 82 °F 78 °F 98 °F (2001)
Min Temperature 68 °F 59 °F 48 °F (2004)
Cooling Degree Days 10    
Growing Degree Days 25 (Base 50)    
Moisture  
Dew Point 69 °F    
Average Humidity 89    
Maximum Humidity 100    
Minimum Humidity 61    
Precipitation  
Precipitation 0.01 in - - ()
Sea Level Pressure  
Sea Level Pressure 29.88 in    
Wind  
Wind Speed 2 mph (SW)    
Max Wind Speed 31 mph    
Max Gust Speed 52 mph    
Visibility 9 miles    
Events Rain , Thunderstorm    
Averages and records for this station are not official NWS values.
T = Trace of Precipitation, MM = Missing Value Source: NWS Daily Summary

Daily Weather History Graph

Daily Weather History Graph

Search for Another Location

Airport or City:

Astronomy

Aug. 05, 2019 Rise Set
Actual Time 6:02 AM CDT 8:34 PM CDT
Civil Twilight 5:28 AM CDT 9:07 PM CDT
Nautical Twilight 4:46 AM CDT 9:49 PM CDT
Astronomical Twilight 3:59 AM CDT 10:37 PM CDT
Moon 11:32 AM CDT (8/5) 11:31 PM CDT (8/5)
Length of Visible Light 15h 39m
Length of Day
14h 32m
Waxing Crescent, 28% of the Moon is Illuminated
Aug 5
Waxing Crescent
Aug 7
First Quarter
Aug 15
Full
Aug 23
Last Quarter
Aug 30
New

Hourly Weather History & Observations

Time (CDT) Temp. Heat Index Dew Point Humidity Pressure Visibility Wind Dir Wind Speed Gust Speed Precip Events Conditions
12:16 AM 71.6 °F - 66.2 °F 83% 29.97 in 10.0 mi Calm Calm - N/A   Clear
12:35 AM 71.6 °F - 66.2 °F 83% 29.96 in 10.0 mi Calm Calm - N/A   Clear
12:57 AM 69.8 °F - 69.8 °F 100% 29.95 in 10.0 mi Calm Calm - N/A   Clear
1:16 AM 71.6 °F - 69.8 °F 94% 29.95 in 10.0 mi Calm Calm - N/A   Clear
1:36 AM 71.6 °F - 69.8 °F 94% 29.94 in 10.0 mi Calm Calm - N/A   Clear
1:56 AM 73.4 °F - 69.8 °F 88% 29.94 in 10.0 mi Calm Calm - N/A   Clear
2:18 AM 71.6 °F - 69.8 °F 94% 29.94 in 10.0 mi South 3.5 mph - N/A   Clear
2:36 AM 71.6 °F - 69.8 °F 94% 29.93 in 10.0 mi Calm Calm - N/A   Clear
2:55 AM 71.6 °F - 68.0 °F 88% 29.93 in 10.0 mi Calm Calm - N/A   Clear
3:16 AM 71.6 °F - 68.0 °F 88% 29.92 in 10.0 mi Calm Calm - N/A   Clear
3:35 AM 69.8 °F - 68.0 °F 94% 29.91 in 10.0 mi Calm Calm - N/A   Scattered Clouds
3:40 AM 69.8 °F - 68.0 °F 94% 29.91 in 10.0 mi Calm Calm - N/A   Scattered Clouds
3:57 AM 69.8 °F - 69.8 °F 100% 29.91 in 10.0 mi Calm Calm - N/A   Scattered Clouds
4:15 AM 69.8 °F - 69.8 °F 100% 29.91 in 10.0 mi Calm Calm - N/A   Clear
4:36 AM 69.8 °F - 69.8 °F 100% 29.91 in 10.0 mi Calm Calm - N/A   Clear
4:56 AM 69.8 °F - 68.0 °F 94% 29.90 in 10.0 mi SSE 3.5 mph - N/A   Clear
5:19 AM 69.8 °F - 69.8 °F 100% 29.89 in 10.0 mi SSE 3.5 mph - N/A   Clear
5:36 AM 69.8 °F - 69.8 °F 100% 29.89 in 10.0 mi South 4.6 mph - N/A   Clear
5:56 AM 71.6 °F - 69.8 °F 94% 29.89 in 10.0 mi SSE 3.5 mph - N/A   Clear
6:16 AM 69.8 °F - 69.8 °F 100% 29.90 in 10.0 mi SSE 3.5 mph - N/A   Clear
6:35 AM 69.8 °F - 69.8 °F 100% 29.90 in 7.0 mi South 3.5 mph - N/A   Clear
6:39 AM 69.8 °F - 69.8 °F 100% 29.90 in 7.0 mi SSE 3.5 mph - N/A   Clear
6:53 AM 69.8 °F - 69.8 °F 100% 29.89 in 10.0 mi South 4.6 mph - N/A   Scattered Clouds
6:58 AM 71.6 °F - 69.8 °F 94% 29.89 in 7.0 mi South 5.8 mph - N/A   Clear
7:53 AM 75.2 °F - 71.6 °F 89% 29.89 in 7.0 mi SSW 6.9 mph - N/A   Mostly Cloudy
8:45 AM 75.2 °F - 71.6 °F 89% 29.87 in 7.0 mi SSE 5.8 mph - N/A   Mostly Cloudy
10:15 AM 78.8 °F - 73.4 °F 83% 29.88 in 7.0 mi WSW 5.8 mph - N/A   Mostly Cloudy
10:35 AM 80.6 °F 85.4 °F 73.4 °F 79% 29.87 in 7.0 mi WSW 5.8 mph - N/A   Mostly Cloudy
10:45 AM 80.6 °F 85.4 °F 73.4 °F 79% 29.87 in 7.0 mi WSW 5.8 mph - N/A   Mostly Cloudy
11:45 AM 82.4 °F 88.2 °F 73.4 °F 74% 29.85 in 10.0 mi Calm Calm - N/A   Mostly Cloudy
12:45 PM 82.4 °F 87.2 °F 71.6 °F 70% 29.83 in 10.0 mi SW 6.9 mph - N/A   Overcast
1:14 PM 80.6 °F 84.6 °F 71.6 °F 74% 29.90 in 1.5 mi West 31.1 mph 51.8 mph N/A Rain , Thunderstorm Heavy Thunderstorms and Rain
1:45 PM 68.0 °F - 66.2 °F 94% 29.85 in 5.0 mi West 3.5 mph - N/A Rain , Thunderstorm Light Thunderstorms and Rain
2:05 PM 69.8 °F - 68.0 °F 94% 29.82 in 10.0 mi Calm Calm - N/A   Mostly Cloudy
2:45 PM 75.2 °F - 69.8 °F 83% 29.81 in 10.0 mi Calm Calm - N/A   Mostly Cloudy
3:45 PM 78.8 °F - 69.8 °F 74% 29.79 in 10.0 mi Calm Calm - N/A   Mostly Cloudy
4:05 PM 78.8 °F - 71.6 °F 78% 29.80 in 5.0 mi Calm Calm - N/A Thunderstorm Thunderstorm
4:45 PM 71.6 °F - 69.8 °F 94% 29.80 in 10.0 mi West 5.8 mph - N/A   Mostly Cloudy
5:45 PM 77.0 °F - 69.8 °F 78% 29.77 in 10.0 mi NW 5.8 mph - N/A   Mostly Cloudy
6:45 PM 80.6 °F 83.2 °F 68.0 °F 65% 29.78 in 10.0 mi NW 5.8 mph - N/A   Scattered Clouds
7:45 PM 77.0 °F - 62.6 °F 61% 29.79 in 10.0 mi North 8.1 mph - N/A   Scattered Clouds
8:45 PM 71.6 °F - 64.4 °F 78% 29.82 in 10.0 mi Calm Calm - N/A   Scattered Clouds
9:45 PM 69.8 °F - 66.2 °F 88% 29.83 in 10.0 mi Calm Calm - N/A   Scattered Clouds
10:15 PM 69.8 °F - 66.2 °F 88% 29.84 in 10.0 mi Calm Calm - N/A   Clear
10:37 PM 68.0 °F - 66.2 °F 94% 29.84 in 10.0 mi Calm Calm - N/A   Clear
10:56 PM 68.0 °F - 66.2 °F 94% 29.84 in 10.0 mi Calm Calm - N/A   Clear
11:16 PM 68.0 °F - 66.2 °F 94% 29.84 in 10.0 mi West 3.5 mph - N/A   Clear
11:36 PM 69.8 °F - 66.2 °F 88% 29.84 in 10.0 mi WNW 3.5 mph - N/A   Clear
11:58 PM 68.0 °F - 66.2 °F 94% 29.84 in 10.0 mi West 5.8 mph - 0.01 in   Clear